When you browse on this site, cookies collect data to enhance your experience and personalize the content and advertising you see.
Visit our Privacy Policy to learn more. By continuing to use the site, you agree to this use of cookies and data.
  • In Hungary
  • List of Countries
  • For 7 days
  • Water Temperature
  • Satellite Maps
  • Weather Map
  • News
  • Weather Widgets
  • user-avatar
    Login

    Hourly Weather Kropiwki

    Today, 25 May, Saturday

    Time Temperature Precipitation Wind Pressure Humidity
    00:00 +14°C° 0 mm 2 mps 743 mmHg 93%
    01:00 +13°C° 0 mm 2 mps 743 mmHg 94%
    02:00 +13°C° 0 mm 2 mps 743 mmHg 95%
    03:00 +13°C° 0 mm 2 mps 743 mmHg 95%
    04:00 +12°C° 0 mm 2 mps 743 mmHg 95%
    05:00 +12°C° 0 mm 2 mps 743 mmHg 95%
    06:00 +14°C° 0 mm 2 mps 743 mmHg 91%
    07:00 +15°C° 0 mm 2 mps 744 mmHg 88%
    08:00 +17°C° 0 mm 2 mps 744 mmHg 84%
    09:00 +18°C° 0.1 mm 3 mps 744 mmHg 79%
    10:00 +19°C° 0.1 mm 4 mps 744 mmHg 74%
    11:00 +20°C° 0.1 mm 5 mps 744 mmHg 68%
    12:00 +21°C° 0.2 mm 5 mps 744 mmHg 65%
    13:00 +21°C° 0.2 mm 5 mps 744 mmHg 61%
    14:00 +22°C° 0.2 mm 5 mps 743 mmHg 58%
    15:00 +22°C° 0 mm 4 mps 743 mmHg 58%
    16:00 +22°C° 0 mm 4 mps 743 mmHg 57%
    17:00 +22°C° 0 mm 3 mps 743 mmHg 57%
    18:00 +20°C° 0.1 mm 3 mps 743 mmHg 64%
    19:00 +19°C° 0.1 mm 3 mps 743 mmHg 71%
    20:00 +17°C° 0.1 mm 2 mps 743 mmHg 78%
    21:00 +16°C° 0 mm 2 mps 743 mmHg 82%
    22:00 +15°C° 0 mm 2 mps 744 mmHg 85%
    23:00 +14°C° 0 mm 2 mps 744 mmHg 89%

    Tomorrow, 26 May, Sunday

    Time Temperature Precipitation Wind Pressure Humidity
    00:00 +14°C° 0 mm 2 mps 744 mmHg 90%
    01:00 +13°C° 0 mm 2 mps 744 mmHg 91%
    02:00 +12°C° 0 mm 2 mps 744 mmHg 92%
    03:00 +12°C° 0 mm 2 mps 744 mmHg 93%
    04:00 +12°C° 0 mm 2 mps 744 mmHg 93%
    05:00 +10°C° 0 mm 2 mps 744 mmHg 94%
    06:00 +12°C° 0 mm 3 mps 745 mmHg 88%
    07:00 +14°C° 0 mm 3 mps 745 mmHg 82%
    08:00 +16°C° 0 mm 3 mps 745 mmHg 76%
    09:00 +17°C° 0 mm 4 mps 745 mmHg 73%
    10:00 +18°C° 0 mm 4 mps 745 mmHg 69%
    11:00 +19°C° 0 mm 4 mps 745 mmHg 66%
    12:00 +20°C° 0 mm 4 mps 745 mmHg 63%
    13:00 +21°C° 0 mm 5 mps 745 mmHg 61%
    14:00 +21°C° 0 mm 5 mps 744 mmHg 59%
    15:00 +21°C° 0 mm 4 mps 744 mmHg 59%
    16:00 +21°C° 0 mm 4 mps 744 mmHg 60%
    17:00 +21°C° 0 mm 4 mps 744 mmHg 60%
    18:00 +20°C° 0 mm 3 mps 744 mmHg 66%
    19:00 +18°C° 0 mm 3 mps 744 mmHg 72%
    20:00 +17°C° 0 mm 2 mps 744 mmHg 78%
    21:00 +16°C° 0 mm 2 mps 744 mmHg 79%
    22:00 +15°C° 0 mm 2 mps 744 mmHg 80%
    23:00 +14°C° 0 mm 2 mps 744 mmHg 81%

    Day after tomorrow, 27 May, Monday

    Time Temperature Precipitation Wind Pressure Humidity
    00:00 +14°C° 0 mm 2 mps 744 mmHg 82%
    01:00 +14°C° 0 mm 2 mps 744 mmHg 82%
    02:00 +12°C° 0 mm 3 mps 744 mmHg 82%
    03:00 +12°C° 0 mm 3 mps 744 mmHg 85%
    04:00 +12°C° 0 mm 3 mps 744 mmHg 87%
    05:00 +12°C° 0 mm 3 mps 744 mmHg 89%
    06:00 +14°C° 0 mm 3 mps 744 mmHg 86%
    07:00 +17°C° 0 mm 3 mps 744 mmHg 83%
    08:00 +19°C° 0 mm 4 mps 744 mmHg 79%
    09:00 +20°C° 0.1 mm 4 mps 744 mmHg 74%
    10:00 +22°C° 0.1 mm 4 mps 744 mmHg 68%
    11:00 +23°C° 0.1 mm 5 mps 744 mmHg 62%
    12:00 +23°C° 0.3 mm 5 mps 744 mmHg 63%
    13:00 +25°C° 0.3 mm 5 mps 743 mmHg 64%
    14:00 +25°C° 0.3 mm 5 mps 743 mmHg 65%
    15:00 +25°C° 0.4 mm 5 mps 743 mmHg 66%
    16:00 +25°C° 0.4 mm 4 mps 743 mmHg 67%
    17:00 +25°C° 0.4 mm 4 mps 742 mmHg 68%
    18:00 +23°C° 0.1 mm 4 mps 742 mmHg 73%
    19:00 +21°C° 0.1 mm 3 mps 742 mmHg 78%
    20:00 +20°C° 0.1 mm 3 mps 742 mmHg 83%
    21:00 +20°C° 0.3 mm 3 mps 742 mmHg 85%
    22:00 +19°C° 0.3 mm 3 mps 742 mmHg 86%
    23:00 +18°C° 0.3 mm 3 mps 743 mmHg 87%

    28 May, Tuesday

    Time Temperature Precipitation Wind Pressure Humidity
    00:00 +18°C° 0 mm 3 mps 742 mmHg 89%
    01:00 +17°C° 0 mm 3 mps 742 mmHg 91%
    02:00 +17°C° 0 mm 2 mps 742 mmHg 93%
    03:00 +17°C° 0.1 mm 2 mps 742 mmHg 93%
    04:00 +17°C° 0.1 mm 2 mps 742 mmHg 94%
    05:00 +17°C° 0.1 mm 2 mps 742 mmHg 94%
    06:00 +17°C° 0.7 mm 2 mps 742 mmHg 94%
    07:00 +17°C° 0.7 mm 2 mps 742 mmHg 95%
    08:00 +18°C° 0.7 mm 2 mps 741 mmHg 95%
    09:00 +19°C° 0.2 mm 3 mps 741 mmHg 89%
    10:00 +21°C° 0.2 mm 3 mps 741 mmHg 84%
    11:00 +22°C° 0.2 mm 4 mps 741 mmHg 79%
    12:00 +23°C° 1 mm 4 mps 741 mmHg 77%
    13:00 +25°C° 1 mm 3 mps 741 mmHg 75%
    14:00 +26°C° 1 mm 3 mps 740 mmHg 72%
    15:00 +26°C° 1.1 mm 3 mps 740 mmHg 73%
    16:00 +26°C° 1.1 mm 2 mps 740 mmHg 73%
    17:00 +26°C° 1.1 mm 2 mps 740 mmHg 74%
    18:00 +24°C° 1.7 mm 2 mps 739 mmHg 77%
    19:00 +23°C° 1.7 mm 1 mps 739 mmHg 80%
    20:00 +22°C° 1.7 mm 1 mps 739 mmHg 82%
    21:00 +21°C° 0.3 mm 1 mps 739 mmHg 84%
    22:00 +18°C° 0.3 mm 0 mps 739 mmHg 85%
    23:00 +18°C° 0.3 mm 0 mps 739 mmHg 86%

    29 May, Wednesday

    Time Temperature Precipitation Wind Pressure Humidity
    00:00 +19°C° 0.7 mm 1 mps 739 mmHg 89%
    01:00 +17°C° 0.7 mm 2 mps 739 mmHg 92%
    02:00 +17°C° 0.7 mm 2 mps 739 mmHg 95%
    03:00 +16°C° 0 mm 2 mps 739 mmHg 95%
    04:00 +16°C° 0 mm 2 mps 740 mmHg 96%
    05:00 +15°C° 0 mm 2 mps 740 mmHg 96%
    06:00 +16°C° 0.1 mm 3 mps 741 mmHg 95%
    07:00 +17°C° 0.1 mm 3 mps 741 mmHg 93%
    08:00 +18°C° 0.1 mm 4 mps 742 mmHg 92%
    09:00 +17°C° 0 mm 4 mps 742 mmHg 92%
    10:00 +15°C° 0 mm 5 mps 743 mmHg 92%
    11:00 +14°C° 0 mm 5 mps 744 mmHg 92%
    12:00 +14°C° 0 mm 5 mps 745 mmHg 91%
    13:00 +13°C° 0 mm 6 mps 745 mmHg 89%
    14:00 +11°C° 0 mm 6 mps 746 mmHg 88%
    15:00 +11°C° 0 mm 6 mps 746 mmHg 86%
    16:00 +13°C° 0 mm 6 mps 747 mmHg 84%
    17:00 +13°C° 0 mm 5 mps 748 mmHg 82%
    18:00 +13°C° 0 mm 4 mps 748 mmHg 81%
    19:00 +13°C° 0 mm 4 mps 748 mmHg 81%
    20:00 +13°C° 0 mm 3 mps 749 mmHg 81%
    21:00 +12°C° 0 mm 3 mps 750 mmHg 81%
    22:00 +11°C° 0 mm 3 mps 750 mmHg 82%
    23:00 +10°C° 0 mm 4 mps 751 mmHg 82%

    30 May, Thursday

    Time Temperature Precipitation Wind Pressure Humidity
    00:00 +8°C° 0 mm 4 mps 751 mmHg 82%
    01:00 +8°C° 0 mm 3 mps 752 mmHg 81%
    02:00 +7°C° 0 mm 3 mps 752 mmHg 80%
    03:00 +5°C° 0 mm 3 mps 752 mmHg 81%
    04:00 +5°C° 0 mm 3 mps 753 mmHg 82%
    05:00 +4°C° 0 mm 3 mps 753 mmHg 83%
    06:00 +7°C° 0 mm 3 mps 753 mmHg 77%
    07:00 +8°C° 0 mm 3 mps 753 mmHg 71%
    08:00 +10°C° 0 mm 3 mps 753 mmHg 65%
    09:00 +11°C° 0 mm 3 mps 753 mmHg 60%
    10:00 +13°C° 0 mm 3 mps 753 mmHg 54%
    11:00 +14°C° 0 mm 3 mps 753 mmHg 48%
    12:00 +16°C° 0 mm 2 mps 753 mmHg 46%
    13:00 +17°C° 0 mm 2 mps 753 mmHg 44%
    14:00 +18°C° 0 mm 2 mps 752 mmHg 43%
    15:00 +18°C° 0 mm 2 mps 752 mmHg 45%
    16:00 +19°C° 0 mm 1 mps 752 mmHg 48%
    17:00 +19°C° 0 mm 1 mps 751 mmHg 50%
    18:00 +18°C° 0 mm 1 mps 751 mmHg 54%
    19:00 +16°C° 0 mm 2 mps 751 mmHg 58%
    20:00 +14°C° 0 mm 2 mps 751 mmHg 63%
    21:00 +14°C° 0 mm 2 mps 751 mmHg 61%
    22:00 +14°C° 0 mm 1 mps 751 mmHg 59%
    23:00 +14°C° 0 mm 1 mps 751 mmHg 57%
    Show more